Location: Cheching
(60.0667°N, 164.2167°W)
Time: 14:22:04
(UTC+00:00)

O/OREOS (USA 219) - Pass Details

Date: 22 January 2021
Orbit: 621 x 646 km, 72.0° (Epoch: 22 May)

Event Time Altitude Azimuth Distance (km) Brightness Sun altitude
Rises 17:56:29 0° 195° (SSW) 2,953 ? -11.1°
Reaches altitude 10° 17:58:48 10° 190° (S) 2,046 ? -10.8°
Maximum altitude 18:03:13 47° 117° (ESE) 855 ? -10.3°
Drops below altitude 10° 18:07:39 10° 44° (NE) 2,054 ? -9.8°
Sets 18:09:59 0° 39° (NE) 2,965 ? -9.5°
